IT9GFD-13 Weather Reports


time (UTC)temp
F
wind
direction
speed
knots
gust
knots
rain 1hr
in
rain 24hr
in
rain mn
in
humidity
%
barometer
mb
20260507103016 76 113 7.8 13.9 0.00 0.00 0.00 39 1006.9
20260507102017 76 135 6.1 14.8 0.00 0.00 0.00 40 1007.6
20260507101016 76 90 7.0 13.9 0.00 0.00 0.00 40 1008.0
20260507100016 76 90 7.0 16.5 0.00 0.00 0.00 40 1007.5
20260507095016 76 90 5.2 13.9 0.00 0.00 0.00 40 1008.2
20260507094016 75 90 8.7 15.6 0.00 0.00 0.00 40 1008.9
20260507093016 75 90 6.1 15.6 0.00 0.00 0.00 42 1009.8
20260507092016 74 113 7.8 17.4 0.00 0.00 0.00 42 1011.1
20260507091016 74 113 7.8 14.8 0.00 0.00 0.00 43 1010.7
20260507090036 74 135 7.0 15.6 0.00 0.00 0.00 45 1010.1
20260507085016 74 113 6.1 14.8 0.00 0.00 0.00 44 1010.0
20260507084016 73 90 6.1 13.0 0.00 0.00 0.00 47 1010.5
20260507083037 73 90 5.2 10.4 0.00 0.00 0.00 47 1011.4
20260507082017 73 113 5.2 12.2 0.00 0.00 0.00 49 1011.5
20260507081016 72 68 5.2 10.4 0.00 0.00 0.00 52 1011.1
20260507080016 72 113 6.1 14.8 0.00 0.00 0.00 50 1010.0
20260507075016 73 158 4.3 13.9 0.00 0.00 0.00 47 1010.6
20260507074016 72 90 5.2 11.3 0.00 0.00 0.00 48 1011.9
20260507073016 71 113 4.3 12.2 0.00 0.00 0.00 48 1013.6
20260507072036 71 113 3.5 7.8 0.00 0.00 0.00 50 1014.5
20260507071016 70 113 5.2 12.2 0.00 0.00 0.00 52 1014.6
20260507070016 68 90 5.2 8.7 0.00 0.00 0.00 56 1014.6
20260507065036 65 23 0.9 3.5 0.00 0.00 0.00 74 1014.8
20260507064016 65 315 2.6 6.1 0.00 0.00 0.00 76 1015.1
20260507063016 64 293 1.7 5.2 0.00 0.00 0.00 75 1015.2
20260507062016 64 0.0 0.0 0.00 0.00 0.00 78 1015.1
20260507061036 64 0.0 0.0 0.00 0.00 0.00 79 1015.3
20260507060016 64 0.0 0.0 0.00 0.00 0.00 80 1015.2
20260507055016 64 0.0 0.0 0.00 0.00 0.00 80 1015.3
20260507054016 64 0.0 0.0 0.00 0.00 0.00 80 1015.2
20260507053016 63 0.0 0.0 0.00 0.00 0.00 81 1015.4
20260507052016 63 0.0 0.0 0.00 0.00 0.00 82 1015.3
20260507051016 63 90 0.9 2.6 0.00 0.00 0.00 82 1015.4
20260507050016 63 0.0 1.7 0.00 0.00 0.00 82 1015.3
20260507045016 63 113 0.9 2.6 0.00 0.00 0.00 82 1015.3
20260507044016 63 0.0 1.7 0.00 0.00 0.00 81 1015.6
20260507043016 64 0.0 0.0 0.00 0.00 0.00 80 1015.5
20260507042016 64 113 2.6 6.1 0.00 0.00 0.00 77 1015.7
20260507041016 65 90 0.9 3.5 0.00 0.00 0.00 71 1015.7
20260507040016 64 0.0 0.0 0.00 0.00 0.00 65 1015.6
20260507035016 64 0.0 3.5 0.00 0.00 0.00 66 1015.4
20260507034016 63 203 0.9 6.1 0.00 0.00 0.00 68 1015.3
20260507033016 63 0.0 0.0 0.00 0.00 0.00 70 1015.3
20260507032016 63 0.0 1.7 0.00 0.00 0.00 73 1015.1
20260507031016 63 0.0 0.0 0.00 0.00 0.00 74 1015.3
20260507030016 63 0.0 0.0 0.00 0.00 0.00 76 1015.3
20260507025036 63 0.0 0.0 0.00 0.00 0.00 78 1015.3
20260507024016 63 90 0.9 3.5 0.00 0.00 0.00 80 1015.0
20260507023016 63 0.0 1.7 0.00 0.00 0.00 83 1015.2
20260507022016 63 45 0.9 2.6 0.00 0.00 0.00 85 1015.3
20260507021015 63 293 0.9 2.6 0.00 0.00 0.00 86 1015.6
20260507020016 63 315 0.9 2.6 0.00 0.00 0.00 86 1015.6
20260507015016 63 0.0 3.5 0.00 0.00 0.00 87 1015.4
20260507014015 63 90 2.6 6.1 0.00 0.00 0.00 86 1015.2
20260507013015 63 90 2.6 7.0 0.00 0.00 0.00 86 1015.7
20260507012016 63 113 1.7 6.1 0.00 0.00 0.00 86 1015.8
20260507011016 63 135 5.2 9.6 0.00 0.00 0.00 85 1015.7
20260507010016 63 68 4.3 8.7 0.00 0.00 0.00 85 1015.8
20260507005016 63 68 2.6 7.0 0.00 0.00 0.00 84 1015.8
20260507004016 63 68 3.5 7.8 0.00 0.00 0.00 84 1015.9
20260507003015 63 90 3.5 6.1 0.00 0.00 0.00 85 1016.1
20260507002016 63 90 0.9 3.5 0.00 0.00 0.00 85 1016.3
20260507001015 63 113 2.6 6.1 0.00 0.00 0.00 86 1016.4
20260507000015 63 113 3.5 7.0 0.00 0.00 0.00 86 1016.3
20260506235015 63 90 3.5 7.8 0.00 0.00 0.00 86 1016.3
20260506234015 63 113 6.1 12.2 0.00 0.00 0.00 86 1016.3
20260506233015 63 90 7.0 13.0 0.00 0.00 0.00 86 1016.0
20260506232015 64 90 5.2 12.2 0.00 0.00 0.00 86 1015.9
20260506231015 64 113 7.0 14.8 0.00 0.00 0.00 85 1015.8
20260506230015 64 113 7.0 15.6 0.00 0.00 0.00 84 1015.8
20260506225015 64 90 5.2 13.0 0.00 0.00 0.00 80 1015.8
20260506224018 65 113 5.2 10.4 0.00 0.00 0.00 76 1015.6
20260506223015 65 135 4.3 10.4 0.00 0.00 0.00 71 1015.6
20260506222015 65 113 6.1 12.2 0.00 0.00 0.00 70 1015.6
20260506221015 65 113 4.3 12.2 0.00 0.00 0.00 70 1015.5
20260506220015 64 113 5.2 12.2 0.00 0.00 0.00 70 1015.4
20260506215017 64 135 3.5 9.6 0.00 0.00 0.00 73 1015.6
20260506214024 63 90 1.7 6.1 0.00 0.00 0.00 79 1015.5
20260506213035 63 90 1.7 6.1 0.00 0.00 0.00 82 1015.2
20260506212017 62 113 0.9 5.2 0.00 0.00 0.00 85 1015.0
20260506211017 62 68 0.9 6.1 0.00 0.00 0.00 88 1015.2
20260506210017 63 135 1.7 3.5 0.00 0.00 0.00 89 1015.4
20260506205018 63 0.0 1.7 0.00 0.00 0.00 89 1015.6
20260506203017 63 113 3.5 7.8 0.00 0.00 0.00 89 1016.3
20260506202017 63 113 3.5 8.7 0.00 0.00 0.00 89 1016.6
20260506201038 63 135 2.6 7.8 0.00 0.00 0.00 89 1016.7
20260506200017 63 113 5.2 12.2 0.00 0.00 0.00 89 1016.9
20260506195017 63 90 5.2 10.4 0.00 0.00 0.00 89 1016.9
20260506194017 63 113 5.2 11.3 0.00 0.00 0.00 89 1016.8
20260506193017 63 113 4.3 8.7 0.00 0.00 0.00 89 1016.9
20260506192017 63 113 4.3 9.6 0.00 0.00 0.00 88 1016.8
20260506191037 63 90 4.3 9.6 0.00 0.00 0.00 88 1016.9
20260506190018 63 90 4.3 9.6 0.00 0.00 0.00 88 1017.0
20260506185017 63 113 5.2 12.2 0.00 0.00 0.00 88 1016.7
20260506184017 64 135 5.2 11.3 0.00 0.00 0.00 87 1016.5
20260506183017 64 113 3.5 9.6 0.00 0.00 0.00 87 1016.5
20260506182017 64 113 5.2 10.4 0.00 0.00 0.00 86 1016.2
20260506181017 64 113 4.3 10.4 0.00 0.00 0.00 86 1016.2
20260506180016 64 135 2.6 7.0 0.00 0.00 0.00 85 1015.9
20260506175017 64 135 3.5 9.6 0.00 0.00 0.00 85 1015.8
20260506174017 65 113 4.3 9.6 0.00 0.00 0.00 84 1015.8
20260506173016 65 90 3.5 7.0 0.00 0.00 0.00 85 1015.8
20260506172017 65 113 3.5 7.8 0.00 0.00 0.00 85 1015.9
20260506171017 65 90 2.6 6.1 0.00 0.00 0.00 85 1016.0
20260506170017 65 113 3.5 7.0 0.00 0.00 0.00 85 1016.2
20260506165017 65 113 4.3 9.6 0.00 0.00 0.00 85 1016.2
20260506164017 65 113 3.5 7.8 0.00 0.00 0.00 85 1016.2
20260506163037 65 113 4.3 9.6 0.00 0.00 0.00 85 1016.2
20260506162017 65 113 5.2 9.6 0.00 0.00 0.00 85 1016.2
20260506161017 65 113 6.1 9.6 0.00 0.00 0.00 84 1016.5
20260506160017 65 113 5.2 9.6 0.00 0.00 0.00 84 1016.5
20260506155016 65 113 5.2 11.3 0.00 0.00 0.00 84 1016.5
20260506154017 65 90 7.0 13.0 0.00 0.00 0.00 84 1016.7
20260506153036 65 90 6.1 11.3 0.00 0.00 0.00 84 1016.6
20260506152016 65 90 7.0 13.9 0.00 0.00 0.00 84 1016.7
20260506151017 66 113 7.0 16.5 0.00 0.00 0.00 83 1016.6
20260506150016 66 113 9.6 16.5 0.00 0.00 0.00 83 1016.5
20260506145017 66 113 7.0 15.6 0.00 0.00 0.00 83 1016.6
20260506144016 66 90 7.8 13.0 0.00 0.00 0.00 82 1016.6
20260506143016 66 90 7.8 15.6 0.00 0.00 0.00 81 1016.3
20260506142016 67 113 8.7 17.4 0.00 0.00 0.00 80 1016.2
20260506141036 67 90 7.8 13.0 0.00 0.00 0.00 81 1016.2
20260506140017 67 113 7.8 15.6 0.00 0.00 0.00 82 1016.3
20260506135017 67 68 7.0 13.9 0.00 0.00 0.00 82 1016.4
20260506134017 66 113 6.1 10.4 0.00 0.00 0.00 83 1016.3
20260506133016 66 113 9.6 17.4 0.00 0.00 0.00 83 1016.5
20260506132016 65 113 10.4 17.4 0.00 0.00 0.00 83 1016.6
20260506131016 66 90 8.7 15.6 0.00 0.00 0.00 83 1016.6
20260506130037 67 113 8.7 15.6 0.00 0.00 0.00 82 1016.9
20260506125016 67 90 7.0 13.9 0.00 0.00 0.00 82 1016.8
20260506124016 67 113 8.7 16.5 0.00 0.00 0.00 80 1016.8
20260506123016 67 90 7.8 13.0 0.00 0.00 0.00 80 1016.8
20260506122017 67 68 7.0 12.2 0.00 0.00 0.00 81 1016.9
20260506121016 67 90 9.6 16.5 0.00 0.00 0.00 80 1017.0
20260506120036 68 45 4.3 11.3 0.00 0.00 0.00 79 1017.2
20260506115016 67 45 5.2 10.4 0.00 0.00 0.00 80 1017.3
20260506114056 67 90 6.1 11.3 0.00 0.00 0.00 80 1017.4
20260506113016 67 68 7.0 12.2 0.00 0.00 0.00 79 1017.5
20260506112016 67 68 6.1 12.2 0.00 0.00 0.00 81 1017.3
20260506111016 67 68 4.3 8.7 0.00 0.00 0.00 81 1017.3
20260506110016 67 90 5.2 12.2 0.00 0.00 0.00 81 1017.4
20260506105016 68 90 5.2 13.0 0.00 0.00 0.00 81 1017.4
20260506104016 67 68 5.2 12.2 0.00 0.00 0.00 82 1017.4